SM2GSR-2 Weather Reports


Display with metric or nautical units.
time (UTC)temp
F
wind
direction
speed
MPH
gust
MPH
rain 1hr
in
rain 24hr
in
rain mn
in
humidity
%
barometer
mb
20260507101503 46 264 0.0 5.0 0.00 0.03 0.01 47 1008.6
20260507101003 46 300 6.0 9.0 0.00 0.03 0.01 47 1008.6
20260507100503 46 291 4.0 12.0 0.00 0.03 0.01 47 1008.5
20260507100003 46 340 4.0 12.0 0.00 0.03 0.01 47 1008.5
20260507095502 46 307 5.0 15.0 0.00 0.03 0.01 49 1008.4
20260507095003 46 258 5.0 14.0 0.00 0.03 0.01 47 1008.4
20260507094503 46 314 5.0 10.0 0.01 0.03 0.01 48 1008.4
20260507094003 45 305 3.0 9.0 0.01 0.03 0.01 49 1008.5
20260507093503 44 268 1.0 9.0 0.01 0.03 0.01 50 1008.5
20260507093003 44 320 1.0 7.0 0.01 0.03 0.01 49 1008.4
20260507092503 44 312 3.0 8.0 0.01 0.03 0.01 50 1008.4
20260507092003 44 348 4.0 8.0 0.01 0.03 0.01 49 1008.4
20260507091503 45 356 1.0 7.0 0.01 0.03 0.01 52 1008.4
20260507090504 45 33 0.0 7.0 0.01 0.03 0.01 53 1008.4
20260507090004 45 328 1.0 6.0 0.01 0.03 0.01 51 1008.4
20260507085503 45 246 0.0 9.0 0.01 0.03 0.01 50 1008.4
20260507085003 43 176 2.0 8.0 0.01 0.03 0.01 54 1008.3
20260507084003 42 319 0.0 0.0 0.00 0.02 0.00 54 1008.4
20260507083503 41 319 0.0 0.0 0.00 0.02 0.00 55 1008.4
20260507083003 42 49 0.0 0.0 0.00 0.02 0.00 54 1008.3
20260507082503 42 51 0.0 0.0 0.00 0.02 0.00 58 1008.4
20260507082003 43 51 0.0 0.0 0.00 0.02 0.00 57 1008.4
20260507081003 43 68 1.0 5.0 0.00 0.02 0.00 59 1008.4
20260507080503 43 67 1.0 5.0 0.00 0.02 0.00 61 1008.4
20260507080004 43 73 3.0 10.0 0.00 0.02 0.00 61 1008.3
20260507075503 44 79 0.0 3.0 0.00 0.02 0.00 60 1008.3
20260507075003 44 80 1.0 3.0 0.00 0.02 0.00 59 1008.3
20260507074003 43 94 0.0 3.0 0.00 0.02 0.00 64 1008.3
20260507073503 43 71 3.0 6.0 0.00 0.02 0.00 63 1008.3
20260507073003 42 88 0.0 0.0 0.00 0.02 0.00 66 1008.3
20260507072503 41 92 0.0 0.0 0.00 0.02 0.00 70 1008.3
20260507072003 41 92 0.0 5.0 0.00 0.02 0.00 67 1008.3
20260507070503 40 63 0.0 0.0 0.00 0.02 0.00 71 1008.2
20260507070005 39 69 1.0 5.0 0.00 0.02 0.00 71 1008.3
20260507065503 39 50 1.0 5.0 0.00 0.02 0.00 70 1008.2
20260507065003 39 46 0.0 3.0 0.00 0.02 0.00 71 1008.3
20260507064503 38 57 0.0 0.0 0.00 0.02 0.00 72 1008.2
20260507064003 38 57 0.0 2.0 0.00 0.02 0.00 72 1008.2
20260507063503 38 70 0.0 5.0 0.00 0.02 0.00 75 1008.1
20260507063003 38 70 0.0 5.0 0.00 0.02 0.00 74 1008.1
20260507062503 38 70 0.0 3.0 0.00 0.02 0.00 74 1008.1
20260507062004 38 71 0.0 0.0 0.00 0.02 0.00 75 1008.1
20260507061503 38 73 0.0 3.0 0.00 0.02 0.00 76 1008.0
20260507061003 37 73 2.0 5.0 0.00 0.02 0.00 76 1008.0
20260507060503 37 73 2.0 5.0 0.00 0.02 0.00 78 1008.0
20260507060003 37 46 0.0 0.0 0.00 0.02 0.00 80 1008.0
20260507054503 35 318 0.0 0.0 0.00 0.02 0.00 87 1008.0
20260507053503 34 318 0.0 0.0 0.00 0.02 0.00 90 1007.9
20260507052503 32 317 0.0 0.0 0.00 0.02 0.00 87 1007.9
20260507052003 32 317 0.0 0.0 0.00 0.02 0.00 86 1007.9
20260507051003 31 317 0.0 0.0 0.00 0.02 0.00 86 1007.9
20260507050503 31 317 0.0 0.0 0.00 0.02 0.00 86 1008.0
20260507050003 30 317 0.0 0.0 0.00 0.02 0.00 86 1007.9
20260507045503 30 317 0.0 0.0 0.00 0.02 0.00 86 1007.9
20260507045003 29 317 0.0 0.0 0.00 0.02 0.00 86 1007.9
20260507044503 29 317 0.0 0.0 0.00 0.02 0.00 86 1007.8
20260507044003 28 317 0.0 0.0 0.00 0.02 0.00 86 1007.9
20260507043503 28 317 0.0 0.0 0.00 0.02 0.00 86 1007.9
20260507043003 27 317 0.0 0.0 0.00 0.02 0.00 87 1007.9
20260507042503 27 317 0.0 0.0 0.00 0.02 0.00 87 1007.9
20260507042003 26 317 0.0 0.0 0.00 0.02 0.00 88 1007.9
20260507041503 26 317 0.0 0.0 0.00 0.02 0.00 88 1007.9
20260507041004 26 317 0.0 0.0 0.00 0.02 0.00 88 1007.9
20260507040503 25 317 0.0 0.0 0.00 0.02 0.00 88 1007.9
20260507040003 25 317 0.0 0.0 0.00 0.02 0.00 88 1007.9
20260507035503 25 317 0.0 0.0 0.00 0.02 0.00 89 1007.9
20260507035003 25 317 0.0 0.0 0.00 0.02 0.00 89 1007.8
20260507034504 24 317 0.0 0.0 0.00 0.02 0.00 89 1007.8
20260507034003 24 317 0.0 0.0 0.00 0.02 0.00 89 1007.8
20260507033503 24 317 0.0 0.0 0.00 0.02 0.00 89 1007.7
20260507033003 24 317 0.0 0.0 0.00 0.02 0.00 89 1007.7
20260507032503 23 317 0.0 0.0 0.00 0.02 0.00 89 1007.7
20260507032003 23 317 0.0 0.0 0.00 0.02 0.00 89 1007.7
20260507031504 23 317 0.0 0.0 0.00 0.02 0.00 89 1007.6
20260507031003 23 317 0.0 0.0 0.00 0.02 0.00 89 1007.6
20260507030003 22 317 0.0 0.0 0.00 0.02 0.00 90 1007.5
20260507025003 22 317 0.0 0.0 0.00 0.02 0.00 90 1007.5
20260507024503 22 317 0.0 0.0 0.00 0.02 0.00 90 1007.5
20260507024003 22 317 0.0 0.0 0.00 0.02 0.00 90 1007.5
20260507023503 22 317 0.0 0.0 0.00 0.02 0.00 90 1007.4
20260507023003 22 317 0.0 0.0 0.00 0.02 0.00 90 1007.4
20260507022003 21 317 0.0 0.0 0.00 0.02 0.00 90 1007.4
20260507021503 21 317 0.0 0.0 0.00 0.02 0.00 90 1007.4
20260507021003 21 317 0.0 0.0 0.00 0.02 0.00 90 1007.3
20260507020003 22 317 0.0 0.0 0.00 0.02 0.00 90 1007.3
20260507015503 22 317 0.0 0.0 0.00 0.02 0.00 90 1007.2
20260507015003 22 317 0.0 0.0 0.00 0.02 0.00 90 1007.2
20260507014503 22 317 0.0 0.0 0.00 0.02 0.00 90 1007.2
20260507014004 22 317 0.0 0.0 0.00 0.02 0.00 90 1007.2
20260507013503 22 317 0.0 0.0 0.00 0.02 0.00 90 1007.2
20260507013003 22 317 0.0 0.0 0.00 0.02 0.00 90 1007.2
20260507012003 22 317 0.0 0.0 0.00 0.02 0.00 90 1007.2
20260507011503 22 317 0.0 0.0 0.00 0.02 0.00 90 1007.1
20260507011004 22 317 0.0 0.0 0.00 0.02 0.00 90 1007.2
20260507010504 22 317 0.0 0.0 0.00 0.02 0.00 90 1007.1
20260507010003 22 317 0.0 0.0 0.00 0.02 0.00 90 1007.1
20260507005004 23 317 0.0 0.0 0.00 0.02 0.00 90 1007.1
20260507004503 23 317 0.0 0.0 0.00 0.02 0.00 90 1007.1
20260507004003 23 317 0.0 0.0 0.00 0.02 0.00 90 1007.0
20260507003004 23 317 0.0 0.0 0.00 0.02 0.00 90 1007.0
20260507002503 23 317 0.0 0.0 0.00 0.02 0.00 90 1006.9
20260507002003 23 317 0.0 0.0 0.00 0.02 0.00 90 1006.9
20260507001503 23 317 0.0 0.0 0.00 0.02 0.00 90 1006.9
20260507001003 24 317 0.0 0.0 0.00 0.02 0.00 90 1006.9
20260507000503 24 317 0.0 0.0 0.00 0.02 0.00 90 1006.8
20260506235504 24 317 0.0 0.0 0.00 0.02 0.00 90 1006.8
20260506235004 24 317 0.0 0.0 0.00 0.02 0.00 90 1006.7
20260506234505 24 317 0.0 0.0 0.00 0.02 0.00 90 1006.7
20260506233504 24 317 0.0 0.0 0.00 0.02 0.00 90 1006.6
20260506233006 24 317 0.0 0.0 0.00 0.02 0.00 90 1006.6
20260506232505 24 317 0.0 0.0 0.00 0.02 0.00 90 1006.5
20260506231504 24 317 0.0 0.0 0.00 0.02 0.00 90 1006.5
20260506231003 25 317 0.0 0.0 0.00 0.02 0.00 90 1006.5
20260506230503 25 317 0.0 0.0 0.00 0.02 0.00 90 1006.5
20260506225503 25 317 0.0 0.0 0.00 0.02 0.00 90 1006.5
20260506225003 25 317 0.0 0.0 0.00 0.02 0.00 90 1006.4
20260506224503 25 317 0.0 0.0 0.00 0.02 0.00 90 1006.4
20260506224003 25 317 0.0 0.0 0.00 0.02 0.00 90 1006.4
20260506223503 25 317 0.0 0.0 0.00 0.02 0.00 90 1006.3
20260506223003 25 317 0.0 0.0 0.00 0.02 0.00 90 1006.3
20260506222503 25 317 0.0 0.0 0.00 0.02 0.00 90 1006.3
20260506222003 25 317 0.0 0.0 0.00 0.02 0.00 90 1006.4
20260506221504 25 317 0.0 0.0 0.00 0.02 0.00 90 1006.3
20260506220503 25 317 0.0 0.0 0.00 0.02 0.00 90 1006.2
20260506220003 25 317 0.0 0.0 0.00 0.02 0.00 90 1006.2
20260506215503 25 317 0.0 0.0 0.00 0.02 0.02 90 1006.2
20260506215003 26 317 0.0 0.0 0.00 0.02 0.02 89 1006.1
20260506214503 26 317 0.0 0.0 0.00 0.02 0.02 90 1006.1
20260506214004 26 317 0.0 0.0 0.00 0.02 0.02 90 1006.0
20260506213503 26 317 0.0 0.0 0.00 0.02 0.02 89 1006.0
20260506213003 26 317 0.0 0.0 0.00 0.02 0.02 89 1006.0
20260506212503 26 317 0.0 0.0 0.00 0.02 0.02 89 1006.0
20260506212003 26 317 0.0 0.0 0.00 0.02 0.02 89 1006.0
20260506211503 26 317 0.0 0.0 0.00 0.02 0.02 89 1005.9
20260506211003 26 317 0.0 0.0 0.00 0.02 0.02 89 1005.9
20260506210503 27 317 0.0 0.0 0.00 0.02 0.02 89 1005.9
20260506210003 27 317 0.0 0.0 0.00 0.02 0.02 89 1005.9
20260506205503 27 317 0.0 0.0 0.00 0.02 0.02 89 1005.9
20260506205003 27 317 0.0 0.0 0.00 0.02 0.02 89 1005.9
20260506204503 27 317 0.0 0.0 0.00 0.02 0.02 89 1005.9
20260506204003 27 317 0.0 0.0 0.00 0.02 0.02 88 1005.9
20260506203503 28 317 0.0 0.0 0.00 0.02 0.02 88 1005.9
20260506203004 28 317 0.0 0.0 0.00 0.02 0.02 88 1005.9
20260506202503 28 317 0.0 0.0 0.00 0.02 0.02 88 1005.8
20260506202003 28 317 0.0 0.0 0.00 0.02 0.02 88 1005.8
20260506201503 29 317 0.0 0.0 0.00 0.02 0.02 88 1005.8
20260506201003 29 317 0.0 0.0 0.00 0.02 0.02 88 1005.7
20260506200503 29 317 0.0 0.0 0.00 0.02 0.02 88 1005.7
20260506200004 29 317 0.0 0.0 0.00 0.02 0.02 88 1005.6
20260506195003 30 317 0.0 0.0 0.00 0.02 0.02 87 1005.5
20260506194503 30 317 0.0 0.0 0.00 0.02 0.02 87 1005.3
20260506194003 30 317 0.0 0.0 0.00 0.02 0.02 87 1005.2
20260506193503 30 317 0.0 0.0 0.00 0.02 0.02 86 1005.1
20260506193003 31 317 0.0 0.0 0.00 0.02 0.02 86 1005.1
20260506192504 31 317 0.0 0.0 0.00 0.02 0.02 86 1005.1
20260506192003 31 317 0.0 0.0 0.00 0.02 0.02 84 1005.1
20260506191503 32 317 0.0 0.0 0.01 0.02 0.02 84 1005.0
20260506191003 33 317 0.0 0.0 0.01 0.02 0.02 83 1005.0
20260506190003 34 317 0.0 0.0 0.01 0.02 0.02 83 1005.0
20260506185003 35 317 0.0 0.0 0.01 0.02 0.02 82 1005.0
20260506184504 35 317 0.0 0.0 0.01 0.02 0.02 82 1005.0
20260506184003 36 317 0.0 0.0 0.01 0.02 0.02 82 1004.9
20260506183503 36 317 0.0 0.0 0.01 0.02 0.02 81 1004.9
20260506183004 37 317 0.0 0.0 0.01 0.02 0.02 80 1004.8
20260506182503 37 317 0.0 0.0 0.01 0.02 0.02 79 1004.8
20260506182003 38 317 0.0 0.0 0.01 0.02 0.02 77 1004.8
20260506181504 39 317 0.0 0.0 0.00 0.01 0.01 76 1004.7
20260506181003 39 317 0.0 0.0 0.00 0.01 0.01 74 1004.7
20260506180503 40 317 0.0 0.0 0.00 0.01 0.01 73 1004.7
20260506180004 40 317 0.0 0.0 0.00 0.01 0.01 71 1004.6
20260506175503 41 317 0.0 0.0 0.00 0.01 0.01 70 1004.6
20260506175003 41 317 0.0 0.0 0.00 0.01 0.01 69 1004.5
20260506174003 41 317 0.0 0.0 0.00 0.01 0.01 71 1004.5
20260506173503 41 317 0.0 0.0 0.00 0.01 0.01 71 1004.6
20260506173004 41 317 0.0 0.0 0.00 0.01 0.01 70 1004.5
20260506172503 41 317 0.0 0.0 0.00 0.01 0.01 69 1004.5
20260506172003 41 317 0.0 0.0 0.00 0.01 0.01 68 1004.4
20260506171003 42 76 0.0 0.0 0.00 0.01 0.01 69 1004.4
20260506170004 42 89 0.0 1.0 0.00 0.01 0.01 72 1004.3
20260506165503 41 92 1.0 2.0 0.00 0.01 0.01 72 1004.3
20260506165003 41 147 0.0 0.0 0.00 0.01 0.01 73 1004.2
20260506164003 41 147 0.0 0.0 0.00 0.01 0.01 72 1004.1
20260506163503 41 147 0.0 0.0 0.00 0.01 0.01 73 1004.1
20260506163004 41 147 0.0 5.0 0.00 0.01 0.01 73 1004.1
20260506162503 41 175 0.0 0.0 0.00 0.01 0.01 74 1004.1
20260506162003 40 183 0.0 0.0 0.00 0.01 0.01 74 1004.1
20260506161503 40 185 3.0 7.0 0.00 0.01 0.01 73 1004.1
20260506161004 41 194 1.0 5.0 0.00 0.01 0.01 71 1004.1
20260506160503 41 167 0.0 0.0 0.00 0.01 0.01 70 1004.1
20260506155004 42 85 0.0 0.0 0.01 0.01 0.01 65 1004.0
20260506154504 42 85 0.0 0.0 0.01 0.01 0.01 65 1003.9
20260506154003 42 85 0.0 0.0 0.01 0.01 0.01 65 1003.9
20260506153503 42 85 0.0 0.0 0.01 0.01 0.01 64 1004.0
20260506151003 41 86 0.0 0.0 0.01 0.01 0.01 69 1004.0
20260506150503 42 86 0.0 0.0 0.01 0.01 0.01 70 1003.9
20260506150003 41 86 0.0 5.0 0.01 0.01 0.01 75 1004.0
20260506145503 40 272 0.0 3.0 0.00 0.00 0.00 80 1004.0
20260506145003 39 281 0.0 0.0 0.00 0.00 0.00 77 1004.1
20260506144503 39 281 0.0 0.0 0.00 0.00 0.00 77 1004.3
20260506144004 39 281 0.0 5.0 0.00 0.00 0.00 76 1004.2
20260506143503 39 277 3.0 7.0 0.00 0.00 0.00 74 1004.2
20260506143004 40 313 5.0 9.0 0.00 0.00 0.00 71 1004.2
20260506142503 41 324 2.0 12.0 0.00 0.00 0.00 67 1004.0
20260506142003 42 297 1.0 9.0 0.00 0.00 0.00 60 1003.9
20260506141003 43 71 0.0 0.0 0.00 0.00 0.00 58 1003.6
20260506140003 42 332 0.0 0.0 0.00 0.00 0.00 66 1003.4
20260506135003 40 331 0.0 0.0 0.00 0.00 0.00 68 1003.4
20260506134003 40 354 1.0 7.0 0.00 0.00 0.00 68 1003.6
20260506133503 41 339 6.0 8.0 0.00 0.00 0.00 67 1003.6
20260506133003 41 349 3.0 10.0 0.00 0.00 0.00 66 1003.5
20260506132503 42 345 3.0 8.0 0.00 0.00 0.00 63 1003.4
20260506132004 43 339 7.0 14.0 0.00 0.00 0.00 61 1003.4
20260506131503 44 340 9.0 16.0 0.00 0.00 0.00 59 1003.3
20260506130003 48 267 2.0 9.0 0.00 0.00 0.00 46 1003.0
20260506125503 47 239 1.0 8.0 0.00 0.00 0.00 46 1003.0
20260506125003 46 217 0.0 2.0 0.00 0.00 0.00 49 1003.0
20260506124503 45 274 1.0 7.0 0.00 0.00 0.00 51 1003.0
20260506123503 46 219 3.0 8.0 0.00 0.00 0.00 52 1002.9
20260506123004 45 273 0.0 0.0 0.00 0.00 0.00 53 1002.8
20260506122503 45 301 0.0 0.0 0.00 0.00 0.00 51 1002.8
20260506122003 45 348 0.0 0.0 0.00 0.00 0.00 53 1002.8
20260506121503 44 266 0.0 0.0 0.00 0.00 0.00 54 1002.8
20260506121004 43 289 0.0 0.0 0.00 0.00 0.00 54 1002.9
20260506120503 43 263 0.0 0.0 0.00 0.00 0.00 53 1002.9
20260506120004 43 300 0.0 0.0 0.00 0.00 0.00 51 1002.9
20260506115503 43 278 2.0 8.0 0.00 0.00 0.00 52 1002.9
20260506115003 43 276 4.0 9.0 0.00 0.00 0.00 51 1002.8
20260506114503 44 319 8.0 15.0 0.00 0.00 0.00 53 1002.7
20260506114003 44 249 3.0 12.0 0.00 0.00 0.00 58 1002.7
20260506113503 43 205 2.0 9.0 0.00 0.00 0.00 60 1002.7
20260506113003 42 249 0.0 0.0 0.00 0.00 0.00 62 1002.8
20260506112503 41 244 0.0 0.0 0.00 0.00 0.00 62 1002.7
20260506111503 41 251 0.0 7.0 0.00 0.00 0.00 60 1002.7
20260506111003 43 278 4.0 12.0 0.00 0.00 0.00 55 1002.7
20260506110503 44 250 5.0 12.0 0.00 0.00 0.00 52 1002.5
20260506110004 45 213 0.0 3.0 0.00 0.00 0.00 51 1002.4
20260506105504 45 264 1.0 6.0 0.00 0.00 0.00 54 1002.3
20260506105003 44 255 0.0 0.0 0.00 0.00 0.00 55 1002.3
20260506104003 43 284 0.0 0.0 0.00 0.00 0.00 53 1002.2
20260506103504 43 308 0.0 0.0 0.00 0.00 0.00 51 1002.2
20260506103003 44 307 4.0 9.0 0.00 0.00 0.00 51 1002.2